QPF
0.00 0.00 0.00 0.01 0.01 0.02 0.04 0.02 0.00 0.00 0.00 0.00 0.00 0.00 0.00 0.01 0.00 0.00 0.00 0.00 0.00 0.00 0.00 0.00 0.00 0.01 0.01 0.01 0.00 0.00 0.00 0.00 0.00 0.00 0.00 0.00 0.00 0.00 0.00 0.00 0.00 0.00 0.00
0.00 0.00 0.00 0.01 0.01 0.03 0.04 0.01 0.00 0.00 0.00 0.00 0.00 0.00 0.00 0.00 0.00 0.00 0.00 0.00 0.00 0.00 0.00 0.00 0.00 0.00 0.00 0.00 0.00 0.00 0.00 0.00 0.00 0.00 0.00 0.00 0.00 0.00 0.00 0.00 0.00 0.00 0.00
0.00 0.00 0.00 0.01 0.01 0.02 0.02 0.01 0.00 0.00 0.00 0.00 0.00 0.00 0.00 0.00 0.00 0.00 0.00 0.00 0.00 0.00 0.00 0.00 0.00 0.00 0.00 0.00 0.00 0.00 0.00 0.00 0.00 0.00 0.00 0.00 0.00 0.00 0.00 0.00 0.00 0.01 0.02
0.00 0.00 0.00 0.00 0.01 0.01 0.01 0.01 0.00 0.00 0.00 0.00 0.00 0.00 0.00 0.00 0.00 0.00 0.00 0.00 0.00 0.00 0.00 0.00 0.00 0.00 0.00 0.00 0.00 0.00 0.00 0.00 0.00 0.00 0.00 0.00 0.00 0.00 0.00 0.00 0.00 0.01 0.01
0.00 0.00 0.00 0.00 0.01 0.01 0.01 0.01 0.01 0.00 0.00 0.00 0.00 0.00 0.01 0.01 0.00 0.00 0.00 0.00 0.00 0.00 0.00 0.00 0.00 0.00 0.00 0.00 0.00 0.00 0.00 0.00 0.00 0.00 0.00 0.00 0.00 0.00 0.00 0.00 0.00 0.01 0.00
0.00 0.00 0.00 0.00 0.01 0.01 0.01 0.01 0.00 0.00 0.00 0.00 0.00 0.00 0.02 0.02 0.01 0.00 0.00 0.00 0.00 0.00 0.00 0.00 0.00 0.00 0.00 0.00 0.00 0.00 0.00 0.00 0.00 0.00 0.00 0.00 0.00 0.00 0.00 0.00 0.00 0.00 0.00
0.00 0.00 0.00 0.00 0.01 0.01 0.01 0.00 0.00 0.00 0.00 0.00 0.00 0.00 0.01 0.02 0.02 0.00 0.00 0.00 0.00 0.00 0.00 0.00 0.00 0.00 0.00 0.00 0.00 0.00 0.00 0.00 0.00 0.00 0.00 0.00 0.00 0.00 0.00 0.00 0.00 0.00 0.00
0.00 0.00 0.00 0.00 0.00 0.01 0.01 0.00 0.00 0.00 0.00 0.00 0.00 0.00 0.00 0.01 0.02 0.01 0.00 0.00 0.00 0.00 0.00 0.00 0.00 0.00 0.00 0.00 0.00 0.00 0.00 0.00 0.00 0.00 0.00 0.00 0.00 0.00 0.00 0.00 0.00 0.00 0.00
0.00 0.00 0.00 0.00 0.00 0.01 0.01 0.00 0.00 0.00 0.00 0.00 0.00 0.00 0.00 0.00 0.01 0.01 0.00 0.00 0.00 0.00 0.00 0.00 0.01 0.01 0.01 0.00 0.00 0.00 0.00 0.00 0.00 0.00 0.00 0.00 0.00 0.00 0.00 0.00 0.00 0.00 0.00
0.00 0.00 0.00 0.00 0.00 0.00 0.01 0.00 0.00 0.00 0.00 0.00 0.00 0.00 0.00 0.00 0.00 0.00 0.00 0.00 0.00 0.00 0.00 0.01 0.01 0.01 0.01 0.00 0.00 0.00 0.00 0.00 0.00 0.00 0.00 0.00 0.00 0.00 0.00 0.00 0.00 0.00 0.00
0.00 0.00 0.00 0.00 0.00 0.00 0.00 0.00 0.00 0.01 0.00 0.00 0.00 0.00 0.00 0.00 0.00 0.00 0.00 0.00 0.00 0.00 0.00 0.00 0.01 0.01 0.01 0.00 0.00 0.00 0.00 0.00 0.00 0.00 0.00 0.00 0.00 0.00 0.00 0.00 0.00 0.00 0.01
0.00 0.00 0.00 0.00 0.00 0.00 0.00 0.00 0.00 0.00 0.00 0.00 0.00 0.00 0.00 0.00 0.00 0.00 0.00 0.00 0.00 0.00 0.00 0.00 0.00 0.00 0.00 0.00 0.00 0.00 0.00 0.00 0.00 0.00 0.00 0.00 0.00 0.00 0.00 0.00 0.00 0.00 0.00
0.00 0.00 0.00 0.00 0.00 0.00 0.00 0.00 0.00 0.00 0.00 0.00 0.00 0.00 0.00 0.00 0.00 0.00 0.00 0.00 0.00 0.00 0.00 0.00 0.00 0.00 0.00 0.00 0.00 0.00 0.00 0.00 0.00 0.00 0.00 0.00 0.00 0.00 0.00 0.00 0.00 0.00 0.00
0.00 0.00 0.00 0.00 0.00 0.00 0.00 0.00 0.00 0.00 0.00 0.00 0.00 0.00 0.00 0.00 0.00 0.00 0.00 0.00 0.00 0.00 0.00 0.00 0.00 0.00 0.00 0.00 0.00 0.00 0.00 0.00 0.00 0.00 0.00 0.00 0.00 0.00 0.00 0.00 0.00 0.00 0.00
0.00 0.00 0.00 0.00 0.00 0.00 0.00 0.00 0.00 0.00 0.00 0.00 0.00 0.00 0.00 0.00 0.00 0.00 0.00 0.00 0.00 0.00 0.00 0.00 0.00 0.00 0.00 0.00 0.00 0.00 0.00 0.00 0.00 0.00 0.00 0.00 0.00 0.00 0.00 0.00 0.00 0.00 0.00
0.00 0.00 0.00 0.00 0.00 0.00 0.00 0.00 0.00 0.00 0.00 0.00 0.00 0.00 0.00 0.00 0.00 0.00 0.00 0.00 0.00 0.00 0.00 0.00 0.00 0.00 0.00 0.00 0.00 0.00 0.00 0.00 0.00 0.00 0.00 0.00 0.00 0.00 0.00 0.00 0.00 0.00 0.00
0.00 0.00 0.00 0.00 0.00 0.00 0.00 0.00 0.00 0.00 0.00 0.00 0.00 0.00 0.00 0.00 0.00 0.00 0.00 0.00 0.00 0.00 0.00 0.00 0.00 0.00 0.00 0.00 0.00 0.00 0.00 0.00 0.00 0.00 0.00 0.00 0.00 0.00 0.00 0.00 0.00 0.00 0.00
0.00 0.00 0.00 0.00 0.00 0.00 0.00 0.00 0.00 0.00 0.00 0.00 0.00 0.00 0.00 0.00 0.00 0.00 0.00 0.00 0.00 0.00 0.00 0.00 0.00 0.00 0.00 0.00 0.00 0.00 0.00 0.00 0.00 0.00 0.00 0.00 0.00 0.00 0.00 0.00 0.00 0.00 0.00
0.00 0.00 0.00 0.00 0.00 0.00 0.00 0.00 0.00 0.00 0.00 0.00 0.00 0.00 0.00 0.00 0.00 0.00 0.00 0.00 0.00 0.00 0.00 0.00 0.00 0.00 0.00 0.00 0.00 0.00 0.00 0.00 0.00 0.00 0.00 0.00 0.00 0.00 0.00 0.00 0.00 0.00 0.00
0.00 0.00 0.00 0.00 0.00 0.00 0.00 0.00 0.00 0.00 0.00 0.00 0.00 0.00 0.00 0.00 0.00 0.00 0.00 0.00 0.00 0.00 0.00 0.00 0.00 0.00 0.00 0.00 0.00 0.00 0.00 0.00 0.00 0.00 0.00 0.00 0.00 0.00 0.00 0.00 0.00 0.00 0.00
0.00 0.00 0.00 0.00 0.00 0.00 0.00 0.00 0.00 0.00 0.00 0.00 0.00 0.00 0.00 0.00 0.00 0.00 0.00 0.00 0.00 0.00 0.00 0.00 0.00 0.00 0.00 0.00 0.00 0.00 0.00 0.00 0.00 0.00 0.00 0.00 0.00 0.00 0.00 0.00 0.00 0.00 0.00
0.00 0.00 0.00 0.00 0.00 0.00 0.00 0.00 0.00 0.00 0.00 0.00 0.00 0.00 0.00 0.00 0.00 0.00 0.00 0.00 0.00 0.00 0.00 0.00 0.00 0.00 0.00 0.00 0.00 0.01 0.00 0.00 0.00 0.00 0.00 0.00 0.00 0.00 0.00 0.00 0.00 0.00 0.00
0.00 0.00 0.00 0.00 0.00 0.00 0.00 0.00 0.00 0.00 0.00 0.00 0.00 0.00 0.00 0.00 0.00 0.00 0.00 0.00 0.00 0.00 0.00 0.00 0.00 0.00 0.00 0.00 0.00 0.01 0.02 0.01 0.01 0.00 0.00 0.00 0.00 0.00 0.00 0.00 0.00 0.00 0.00
0.00 0.00 0.00 0.00 0.00 0.00 0.00 0.00 0.00 0.00 0.00 0.00 0.00 0.00 0.00 0.00 0.00 0.00 0.00 0.00 0.00 0.00 0.00 0.00 0.00 0.00 0.00 0.00 0.00 0.00 0.01 0.01 0.01 0.01 0.00 0.00 0.00 0.00 0.00 0.00 0.00 0.00 0.00
0.00 0.00 0.00 0.00 0.00 0.00 0.00 0.00 0.00 0.00 0.00 0.00 0.00 0.00 0.00 0.00 0.00 0.00 0.00 0.00 0.00 0.00 0.00 0.00 0.00 0.00 0.00 0.00 0.00 0.00 0.00 0.00 0.00 0.00 0.00 0.00 0.00 0.00 0.00 0.00 0.00 0.00 0.00
0.00 0.00 0.00 0.00 0.00 0.00 0.00 0.00 0.00 0.00 0.00 0.00 0.00 0.00 0.00 0.00 0.00 0.00 0.00 0.00 0.00 0.00 0.00 0.00 0.00 0.00 0.00 0.00 0.00 0.00 0.00 0.00 0.00 0.00 0.00 0.00 0.00 0.00 0.00 0.00 0.00 0.00 0.00
MSLP
1011.09 1011.17 1011.37 1011.68 1012.05 1012.43 1012.78 1013.07 1013.28 1013.39 1013.44 1013.44 1013.45 1013.47 1013.54 1013.64 1013.77 1013.90 1014.01 1014.06 1014.06 1014.00 1013.91 1013.80 1013.69 1013.62 1013.58 1013.58 1013.60 1013.63 1013.65 1013.65 1013.63 1013.58 1013.52 1013.46 1013.39 1013.34 1013.29 1013.25 1013.21 1013.17 1013.13
1011.01 1011.09 1011.30 1011.61 1011.99 1012.39 1012.77 1013.08 1013.31 1013.45 1013.52 1013.54 1013.55 1013.57 1013.62 1013.71 1013.82 1013.93 1014.02 1014.07 1014.07 1014.03 1013.96 1013.87 1013.80 1013.75 1013.73 1013.73 1013.74 1013.75 1013.75 1013.72 1013.68 1013.61 1013.54 1013.46 1013.39 1013.34 1013.29 1013.24 1013.20 1013.16 1013.11
1010.88 1010.98 1011.19 1011.51 1011.89 1012.31 1012.71 1013.06 1013.32 1013.50 1013.59 1013.63 1013.65 1013.67 1013.71 1013.78 1013.86 1013.94 1014.01 1014.05 1014.05 1014.03 1013.98 1013.94 1013.90 1013.88 1013.88 1013.88 1013.89 1013.88 1013.85 1013.79 1013.72 1013.63 1013.54 1013.45 1013.37 1013.30 1013.24 1013.19 1013.14 1013.10 1013.06
1010.74 1010.86 1011.08 1011.40 1011.80 1012.23 1012.64 1013.01 1013.30 1013.51 1013.63 1013.69 1013.72 1013.74 1013.77 1013.82 1013.87 1013.93 1013.98 1014.01 1014.02 1014.01 1014.00 1013.98 1013.98 1013.99 1014.00 1014.02 1014.01 1013.98 1013.93 1013.85 1013.74 1013.63 1013.51 1013.41 1013.31 1013.23 1013.15 1013.09 1013.03 1012.99 1012.96
1010.65 1010.78 1011.02 1011.34 1011.74 1012.16 1012.58 1012.96 1013.26 1013.47 1013.61 1013.69 1013.73 1013.76 1013.79 1013.82 1013.87 1013.91 1013.95 1013.98 1013.99 1013.99 1014.00 1014.02 1014.04 1014.07 1014.09 1014.11 1014.09 1014.05 1013.97 1013.86 1013.73 1013.59 1013.46 1013.33 1013.21 1013.11 1013.02 1012.95 1012.89 1012.85 1012.83
1010.63 1010.79 1011.03 1011.36 1011.74 1012.15 1012.55 1012.90 1013.19 1013.40 1013.54 1013.62 1013.67 1013.71 1013.75 1013.80 1013.84 1013.89 1013.92 1013.95 1013.97 1013.98 1014.00 1014.03 1014.06 1014.10 1014.12 1014.12 1014.10 1014.03 1013.93 1013.80 1013.65 1013.50 1013.34 1013.20 1013.07 1012.95 1012.85 1012.77 1012.71 1012.67 1012.67
1010.71 1010.88 1011.13 1011.45 1011.81 1012.19 1012.55 1012.86 1013.11 1013.29 1013.42 1013.50 1013.56 1013.61 1013.67 1013.74 1013.80 1013.86 1013.91 1013.94 1013.96 1013.97 1013.99 1014.01 1014.04 1014.06 1014.07 1014.05 1014.00 1013.91 1013.79 1013.65 1013.48 1013.32 1013.16 1013.01 1012.88 1012.75 1012.64 1012.56 1012.49 1012.46 1012.47
1010.85 1011.04 1011.29 1011.60 1011.93 1012.27 1012.57 1012.83 1013.03 1013.17 1013.26 1013.33 1013.40 1013.47 1013.56 1013.66 1013.75 1013.83 1013.89 1013.92 1013.94 1013.95 1013.95 1013.95 1013.95 1013.95 1013.93 1013.88 1013.80 1013.69 1013.55 1013.39 1013.22 1013.05 1012.90 1012.75 1012.62 1012.50 1012.40 1012.31 1012.25 1012.22 1012.23
1011.01 1011.20 1011.45 1011.74 1012.04 1012.33 1012.58 1012.78 1012.92 1013.01 1013.08 1013.14 1013.22 1013.31 1013.43 1013.56 1013.68 1013.78 1013.85 1013.89 1013.90 1013.88 1013.86 1013.83 1013.80 1013.75 1013.69 1013.61 1013.50 1013.36 1013.20 1013.03 1012.86 1012.70 1012.56 1012.43 1012.31 1012.21 1012.11 1012.03 1011.96 1011.93 1011.93
1011.10 1011.29 1011.53 1011.80 1012.08 1012.33 1012.53 1012.68 1012.77 1012.83 1012.88 1012.94 1013.02 1013.14 1013.28 1013.43 1013.58 1013.69 1013.77 1013.80 1013.79 1013.76 1013.70 1013.64 1013.56 1013.48 1013.38 1013.26 1013.11 1012.94 1012.76 1012.58 1012.42 1012.27 1012.14 1012.03 1011.94 1011.85 1011.77 1011.69 1011.62 1011.57 1011.54
1011.08 1011.25 1011.48 1011.73 1011.98 1012.20 1012.37 1012.49 1012.56 1012.61 1012.66 1012.72 1012.82 1012.96 1013.12 1013.28 1013.44 1013.55 1013.62 1013.64 1013.61 1013.55 1013.46 1013.36 1013.26 1013.14 1013.00 1012.85 1012.67 1012.47 1012.27 1012.08 1011.91 1011.76 1011.65 1011.56 1011.49 1011.42 1011.35 1011.27 1011.19 1011.12 1011.06
1010.90 1011.05 1011.25 1011.48 1011.71 1011.91 1012.08 1012.20 1012.28 1012.34 1012.40 1012.49 1012.61 1012.76 1012.93 1013.10 1013.24 1013.35 1013.39 1013.39 1013.33 1013.25 1013.14 1013.02 1012.89 1012.74 1012.58 1012.40 1012.19 1011.97 1011.74 1011.53 1011.34 1011.20 1011.09 1011.02 1010.96 1010.90 1010.84 1010.75 1010.66 1010.55 1010.46
1010.60 1010.71 1010.87 1011.07 1011.29 1011.49 1011.66 1011.80 1011.92 1012.01 1012.12 1012.24 1012.38 1012.54 1012.71 1012.87 1012.99 1013.07 1013.09 1013.05 1012.97 1012.87 1012.74 1012.61 1012.47 1012.31 1012.14 1011.93 1011.70 1011.45 1011.19 1010.95 1010.74 1010.58 1010.46 1010.38 1010.33 1010.28 1010.21 1010.12 1010.00 1009.87 1009.73
1010.24 1010.29 1010.41 1010.57 1010.77 1010.97 1011.17 1011.35 1011.51 1011.67 1011.82 1011.98 1012.15 1012.32 1012.49 1012.62 1012.71 1012.75 1012.73 1012.66 1012.56 1012.44 1012.31 1012.18 1012.04 1011.88 1011.69 1011.47 1011.21 1010.92 1010.63 1010.35 1010.10 1009.90 1009.76 1009.66 1009.60 1009.54 1009.47 1009.37 1009.23 1009.07 1008.89
1009.91 1009.90 1009.95 1010.07 1010.24 1010.45 1010.67 1010.89 1011.12 1011.34 1011.55 1011.75 1011.95 1012.12 1012.27 1012.37 1012.42 1012.42 1012.37 1012.27 1012.15 1012.02 1011.89 1011.76 1011.62 1011.46 1011.27 1011.02 1010.73 1010.41 1010.06 1009.73 1009.42 1009.18 1009.00 1008.87 1008.78 1008.70 1008.62 1008.50 1008.35 1008.16 1007.96
1009.73 1009.64 1009.62 1009.68 1009.82 1010.02 1010.26 1010.53 1010.81 1011.09 1011.36 1011.60 1011.81 1011.98 1012.11 1012.18 1012.19 1012.15 1012.06 1011.95 1011.81 1011.68 1011.55 1011.42 1011.27 1011.11 1010.89 1010.62 1010.29 1009.92 1009.51 1009.11 1008.74 1008.44 1008.19 1008.02 1007.89 1007.79 1007.69 1007.55 1007.39 1007.19 1006.97
1009.74 1009.58 1009.49 1009.49 1009.58 1009.77 1010.03 1010.33 1010.66 1010.99 1011.30 1011.56 1011.78 1011.94 1012.04 1012.08 1012.07 1011.99 1011.89 1011.75 1011.61 1011.47 1011.33 1011.19 1011.03 1010.84 1010.60 1010.29 1009.91 1009.48 1009.01 1008.53 1008.09 1007.71 1007.40 1007.16 1006.99 1006.85 1006.72 1006.58 1006.40 1006.19 1005.96
1009.97 1009.74 1009.58 1009.52 1009.58 1009.76 1010.03 1010.36 1010.72 1011.08 1011.40 1011.68 1011.89 1012.04 1012.12 1012.13 1012.09 1012.00 1011.88 1011.74 1011.59 1011.44 1011.29 1011.13 1010.94 1010.71 1010.42 1010.06 1009.62 1009.12 1008.58 1008.04 1007.51 1007.05 1006.66 1006.36 1006.12 1005.94 1005.77 1005.61 1005.42 1005.21 1004.97
1010.37 1010.10 1009.88 1009.78 1009.82 1009.98 1010.26 1010.61 1010.99 1011.37 1011.70 1011.97 1012.17 1012.29 1012.34 1012.34 1012.28 1012.19 1012.07 1011.93 1011.77 1011.61 1011.43 1011.24 1011.01 1010.72 1010.37 1009.95 1009.45 1008.89 1008.28 1007.66 1007.07 1006.52 1006.05 1005.66 1005.36 1005.11 1004.90 1004.71 1004.51 1004.28 1004.04
1010.88 1010.58 1010.34 1010.22 1010.25 1010.42 1010.71 1011.07 1011.47 1011.84 1012.17 1012.42 1012.59 1012.68 1012.72 1012.70 1012.64 1012.55 1012.43 1012.30 1012.14 1011.96 1011.76 1011.52 1011.23 1010.88 1010.47 1009.99 1009.43 1008.81 1008.15 1007.47 1006.80 1006.17 1005.61 1005.14 1004.74 1004.42 1004.15 1003.91 1003.68 1003.44 1003.19
1011.42 1011.12 1010.88 1010.77 1010.81 1011.00 1011.31 1011.70 1012.09 1012.46 1012.77 1012.99 1013.12 1013.19 1013.20 1013.17 1013.11 1013.04 1012.94 1012.81 1012.65 1012.45 1012.21 1011.92 1011.58 1011.17 1010.70 1010.17 1009.57 1008.91 1008.20 1007.47 1006.74 1006.04 1005.39 1004.81 1004.31 1003.89 1003.54 1003.24 1002.97 1002.70 1002.44
1011.91 1011.64 1011.44 1011.36 1011.45 1011.67 1012.01 1012.41 1012.81 1013.16 1013.44 1013.62 1013.72 1013.75 1013.74 1013.71 1013.66 1013.59 1013.51 1013.39 1013.23 1013.02 1012.74 1012.40 1012.01 1011.55 1011.04 1010.47 1009.84 1009.16 1008.44 1007.67 1006.89 1006.12 1005.38 1004.69 1004.08 1003.54 1003.09 1002.71 1002.37 1002.08 1001.79
1012.34 1012.13 1011.98 1011.96 1012.10 1012.37 1012.74 1013.15 1013.54 1013.88 1014.12 1014.26 1014.32 1014.32 1014.29 1014.25 1014.21 1014.16 1014.09 1013.98 1013.81 1013.58 1013.27 1012.89 1012.46 1011.97 1011.43 1010.85 1010.22 1009.55 1008.82 1008.05 1007.23 1006.40 1005.57 1004.77 1004.04 1003.38 1002.81 1002.32 1001.91 1001.57 1001.25
1012.72 1012.57 1012.50 1012.55 1012.74 1013.05 1013.45 1013.87 1014.25 1014.56 1014.76 1014.85 1014.87 1014.85 1014.80 1014.75 1014.71 1014.67 1014.61 1014.51 1014.33 1014.08 1013.74 1013.33 1012.87 1012.36 1011.81 1011.24 1010.64 1010.00 1009.29 1008.53 1007.70 1006.82 1005.92 1005.02 1004.16 1003.37 1002.67 1002.07 1001.58 1001.17 1000.82
1013.09 1013.02 1013.02 1013.13 1013.37 1013.72 1014.13 1014.54 1014.90 1015.17 1015.33 1015.38 1015.36 1015.31 1015.25 1015.19 1015.16 1015.12 1015.06 1014.94 1014.75 1014.47 1014.11 1013.67 1013.19 1012.67 1012.14 1011.60 1011.04 1010.44 1009.78 1009.04 1008.22 1007.31 1006.35 1005.36 1004.39 1003.48 1002.66 1001.95 1001.37 1000.89 1000.49
1013.48 1013.50 1013.57 1013.74 1014.01 1014.37 1014.78 1015.16 1015.48 1015.70 1015.82 1015.83 1015.78 1015.71 1015.63 1015.57 1015.53 1015.49 1015.42 1015.28 1015.07 1014.76 1014.36 1013.90 1013.40 1012.88 1012.37 1011.86 1011.35 1010.81 1010.20 1009.50 1008.70 1007.79 1006.79 1005.74 1004.69 1003.68 1002.75 1001.94 1001.26 1000.71 1000.27
Thickness
5772 5769 5762 5760 5757 5754 5752 5749 5747 5745 5744 5743 5743 5742 5741 5740 5740 5739 5738 5738 5737 5736 5736 5736 5735 5735 5734 5733 5732 5731 5729 5727 5724 5722 5719 5717 5716 5715 5714 5713 5712 5716 5713
5775 5769 5761 5758 5755 5753 5750 5747 5744 5742 5741 5740 5740 5739 5738 5737 5737 5736 5735 5735 5734 5733 5733 5733 5732 5732 5731 5730 5729 5727 5725 5723 5721 5718 5716 5715 5713 5711 5711 5710 5709 5712 5710
5772 5767 5760 5757 5754 5751 5748 5745 5742 5739 5737 5736 5737 5736 5736 5735 5734 5733 5732 5731 5730 5730 5729 5729 5729 5729 5728 5727 5726 5724 5722 5720 5718 5715 5713 5715 5715 5710 5709 5709 5708 5708 5708
5769 5766 5762 5756 5753 5750 5746 5743 5740 5737 5734 5733 5733 5734 5733 5733 5732 5730 5730 5729 5728 5727 5726 5726 5725 5725 5724 5723 5722 5721 5719 5717 5715 5712 5713 5715 5714 5711 5709 5708 5707 5706 5706
5766 5764 5760 5754 5751 5748 5745 5742 5738 5735 5733 5731 5730 5731 5731 5730 5730 5729 5727 5726 5725 5724 5723 5722 5722 5721 5720 5719 5718 5717 5716 5715 5713 5711 5713 5712 5712 5711 5708 5708 5707 5705 5704
5763 5760 5757 5751 5748 5746 5743 5740 5737 5734 5732 5730 5728 5728 5728 5728 5728 5727 5725 5723 5722 5721 5719 5719 5719 5718 5717 5715 5714 5713 5713 5713 5711 5713 5712 5711 5712 5710 5707 5707 5706 5704 5702
5760 5757 5754 5747 5744 5743 5741 5739 5736 5733 5731 5729 5726 5725 5726 5726 5726 5724 5722 5720 5718 5718 5717 5716 5715 5714 5713 5712 5711 5710 5710 5709 5708 5710 5710 5710 5709 5707 5705 5705 5704 5703 5700
5755 5752 5750 5743 5741 5739 5738 5736 5733 5731 5729 5727 5724 5723 5723 5723 5722 5721 5718 5716 5715 5714 5714 5713 5712 5711 5710 5709 5708 5707 5706 5705 5705 5707 5707 5707 5706 5703 5702 5702 5701 5701 5698
5752 5749 5747 5744 5740 5736 5734 5733 5731 5729 5727 5725 5723 5720 5719 5719 5718 5717 5715 5713 5712 5711 5710 5710 5709 5708 5707 5706 5705 5703 5702 5701 5700 5703 5704 5702 5701 5698 5697 5697 5697 5697 5695
5748 5746 5745 5743 5741 5738 5734 5730 5728 5726 5724 5722 5720 5718 5716 5715 5714 5713 5711 5710 5708 5708 5707 5707 5706 5705 5703 5702 5701 5699 5698 5697 5699 5701 5700 5699 5695 5692 5691 5691 5691 5691 5691
5744 5745 5744 5742 5740 5737 5734 5731 5726 5723 5721 5719 5718 5715 5713 5714 5714 5711 5709 5706 5705 5705 5704 5704 5702 5701 5699 5699 5698 5696 5694 5696 5699 5697 5696 5695 5691 5688 5687 5686 5685 5685 5684
5744 5745 5744 5742 5739 5736 5732 5729 5727 5724 5721 5718 5717 5715 5713 5712 5710 5707 5705 5702 5702 5701 5700 5700 5698 5697 5695 5697 5696 5692 5691 5693 5692 5693 5692 5689 5686 5684 5683 5682 5680 5679 5678
5745 5744 5744 5741 5738 5735 5731 5728 5726 5723 5719 5717 5715 5712 5709 5707 5705 5703 5702 5701 5699 5698 5698 5697 5695 5694 5693 5691 5689 5688 5687 5686 5687 5688 5688 5684 5681 5679 5678 5677 5676 5675 5673
5742 5743 5743 5741 5738 5734 5731 5728 5725 5722 5718 5715 5712 5709 5707 5705 5702 5701 5699 5697 5695 5694 5693 5691 5690 5689 5687 5686 5685 5684 5683 5682 5683 5683 5684 5681 5678 5676 5675 5673 5672 5671 5669
5741 5742 5742 5741 5738 5734 5729 5726 5723 5720 5717 5714 5709 5707 5704 5702 5700 5698 5694 5692 5690 5689 5687 5686 5685 5684 5683 5682 5681 5680 5679 5680 5681 5681 5681 5679 5676 5673 5672 5671 5670 5668 5667
5739 5741 5741 5740 5738 5733 5728 5724 5721 5718 5713 5710 5706 5703 5699 5697 5694 5691 5688 5686 5684 5682 5681 5679 5679 5678 5678 5678 5677 5676 5677 5677 5678 5678 5678 5678 5676 5672 5670 5669 5668 5666 5664
5734 5736 5737 5736 5734 5731 5726 5722 5718 5713 5709 5705 5701 5698 5694 5691 5688 5685 5682 5680 5679 5677 5675 5674 5673 5672 5671 5671 5671 5672 5672 5672 5673 5673 5673 5673 5673 5671 5667 5665 5664 5662 5661
5728 5730 5731 5730 5729 5726 5721 5716 5712 5708 5703 5699 5695 5692 5689 5686 5682 5678 5675 5673 5671 5669 5668 5666 5665 5665 5665 5665 5666 5667 5667 5668 5668 5669 5668 5668 5666 5666 5664 5661 5657 5655 5654
5721 5723 5723 5723 5722 5718 5713 5709 5704 5700 5695 5691 5687 5684 5680 5677 5673 5671 5667 5665 5664 5662 5660 5659 5657 5657 5657 5657 5657 5659 5660 5662 5663 5664 5664 5662 5660 5658 5657 5655 5652 5649 5646
5712 5714 5715 5714 5713 5709 5705 5701 5695 5689 5684 5679 5675 5671 5669 5666 5663 5661 5658 5656 5655 5654 5651 5650 5649 5648 5648 5649 5650 5652 5655 5657 5659 5659 5658 5656 5654 5651 5648 5645 5644 5643 5639
5703 5704 5704 5703 5702 5700 5697 5692 5685 5677 5671 5665 5660 5657 5655 5653 5650 5649 5648 5646 5644 5642 5640 5639 5638 5638 5639 5638 5639 5643 5648 5652 5653 5651 5648 5645 5643 5642 5639 5637 5634 5631 5630
5693 5693 5692 5691 5690 5688 5685 5680 5674 5667 5660 5654 5649 5645 5643 5641 5639 5637 5635 5634 5631 5629 5628 5626 5624 5624 5625 5622 5621 5625 5635 5639 5641 5634 5629 5628 5629 5627 5626 5625 5621 5617 5613
5680 5680 5680 5679 5677 5675 5672 5667 5662 5656 5651 5645 5639 5635 5631 5629 5627 5624 5622 5621 5618 5617 5614 5612 5610 5608 5607 5607 5603 5601 5604 5611 5610 5616 5616 5612 5609 5609 5608 5606 5602 5599 5595
5669 5669 5670 5668 5666 5663 5660 5656 5651 5645 5639 5632 5627 5624 5620 5616 5613 5611 5609 5607 5605 5603 5600 5597 5595 5591 5589 5588 5586 5581 5576 5574 5577 5589 5589 5585 5583 5582 5581 5581 5579 5576 5572
5659 5659 5659 5658 5654 5650 5647 5643 5639 5633 5626 5620 5617 5613 5610 5606 5601 5597 5595 5593 5590 5587 5583 5580 5577 5574 5570 5567 5563 5559 5557 5553 5551 5553 5563 5563 5558 5555 5553 5553 5550 5547 5543
5651 5650 5649 5647 5642 5637 5634 5630 5625 5619 5615 5610 5606 5603 5599 5595 5590 5585 5582 5579 5576 5572 5568 5564 5561 5557 5552 5547 5542 5537 5532 5527 5524 5523 5530 5538 5539 5538 5530 5527 5522 5516 5511